This demonstration page uses our WeatherBlox Daily Observations layout. Learn more.

Left ArrowRight Arrow

Hourly Observations for August 29, 2015

Temp ( °F °C ) Dew Point ( °F °C ) Humidity (%) Winds ( mph kmh ) Pressure ( in mb ) Visibility ( mi km ) Precip ( " mm )
12:53 am 00:53 Clear 60 15.6 59 15 96 96 N N/A 30.14 1021 10 16 N/A
1:53 am 01:53 Clear 59 15 58 14.4 96 96 N N/A 30.13 1020 8 13 N/A
2:53 am 02:53 Clear with Mist and Fog 59 15 58 14.4 96 96 N N/A 30.12 1020 6 10 N/A
3:53 am 03:53 Clear 59 15 57 13.9 93 93 N N/A 30.11 1020 9 14 N/A
4:53 am 04:53 Clear 60 15.6 59 15 96 96 N N/A 30.11 1020 10 16 N/A
5:53 am 05:53 Clear 62 16.7 60 15.6 93 93 N N/A 30.12 1020 10 16 N/A
6:53 am 06:53 Clear 63 17.2 60 15.6 90 90 N N/A 30.12 1020 10 16 N/A
7:53 am 07:53 Partly Cloudy 66 18.9 62 16.7 87 87 E 3 6 30.13 1020 9 14 N/A
8:53 am 08:53 Mostly Cloudy 73 22.8 64 17.8 74 74 N N/A 30.14 1021 10 16 N/A
9:53 am 09:53 Sunny 78 25.6 66 18.9 67 67 VRB 3 6 30.13 1020 10 16 N/A
10:53 am 10:53 Sunny 80 26.7 67 19.4 64 64 WSW 8 13 30.14 1021 10 16 N/A
11:53 am 11:53 Sunny 84 28.9 68 20 59 59 VRB 6 9 30.13 1020 10 16 N/A
12:53 pm 12:53 Mostly Sunny 86 30 69 20.6 57 57 VRB 3 6 30.11 1020 10 16 N/A
1:53 pm 13:53 Mostly Cloudy 84 28.9 67 19.4 57 57 W 7 11 30.10 1019 10 16 N/A
2:53 pm 14:53 Mostly Cloudy 84 28.9 69 20.6 61 61 WSW 8 13 30.08 1019 10 16 N/A
3:53 pm 15:53 Mostly Sunny 85 29.4 67 19.4 55 55 SW 6 9 30.06 1018 10 16 N/A
4:53 pm 16:53 Sunny 86 30 66 18.9 51 51 VRB 6 9 30.05 1018 10 16 N/A
5:53 pm 17:53 Sunny 86 30 65 18.3 49 49 VRB 3 6 30.04 1017 10 16 N/A
6:53 pm 18:53 Sunny 81 27.2 70 21.1 69 69 N N/A 30.04 1017 10 16 N/A
7:53 pm 19:53 Sunny 75 23.9 69 20.6 82 82 N N/A 30.04 1017 10 16 N/A
8:53 pm 20:53 Clear 74 23.3 68 20 82 82 N N/A 30.05 1018 10 16 N/A
9:53 pm 21:53 Mostly Clear 72 22.2 68 20 87 87 N N/A 30.06 1018 10 16 N/A
10:53 pm 22:53 Mostly Clear 71 21.7 68 20 90 90 SE 3 6 30.06 1018 10 16 N/A
11:42 pm 23:42 Partly Cloudy with Nearby Thunderstorms 72 22.2 68 20 87 87 N N/A 30.06 1018 10 16 N/A
11:53 pm 23:53 Mostly Clear 71 21.7 68 20 90 90 N N/A 30.06 1018 10 16 N/A

Powered by AerisWeather